星链-4500 (STARLINK-4500 )

导读 | 星芒AI

STARLINK-4500 是 SpaceX Starlink 项目中的第 4500 颗卫星,属于该公司构建的低轨卫星互联网星座的一部分。该卫星旨在为全球用户提供高速、低延迟的互联网服务,尤其服务于偏远和网络覆盖不足的地区。它采用先进的推进系统和激光通信技术,以提高网络效率和卫星间通信能力。STARLINK-4500 的发射进一步增强了 Starlink 网络的稳定性和覆盖范围,支持包括民用、商业和军事在内的多种应用场景。

基本信息
目录编号:
53413
目录名称:
STARLINK-4500
国际标识:
2022-097AB
轨道中心:
EARTH
卫星名称:
星链-4500
卫星全名:
星链-4500 (STARLINK-4500 )
卫星状态:
在轨 (已飞行1183 天)
发射日期:
2022-08-10 UTC
国别 :
美国 (US)
星等 :
--
轨道信息
数据来源 国际轨道数据 AOE轨道数据
星历时间 2025-11-04T12:20:39+0800
22小时前
查看轨道信息
2025-11-03T08:00:00+0800
2天前
查看轨道信息
半长轴 6917.882km 6917.891km
偏心率 0.0001381 0.0001856
轨道倾角 53.217° 53.217°
近地点辐角 93.530° 78.170°
升交点赤经 317.549° 322.853°
平近点角 266.585° 343.407°
近地点 538.791km 538.472km
远地点 540.703km 541.04km
周期 95.438分钟 95.438分钟
每日圈数 15.088398 15.088367
详细信息
固有亮度:
5
最大亮度:
2.5
卫星平台:
Starlink v1.5
覆盖范围:
全球
运营商:
太空探索技术公司
运营商所在国:
美国
制造商(研发单位):
太空探索技术公司
制造商所在国:
美国
使用方式:
暂无
卫星简介
星链(Starlink)计划是由太空探索技术公司(SpaceX)提出的一个巨型低轨卫星互联网星座项目,计划在2019年至2024年间在太空搭建由约1.2万颗卫星组成的“星链”网络,其中1584颗将部署在地球上空550千米处的近地轨道,并从2020年开始工作。该卫星仍在工作。
2D轨道图
3D轨道图
轨道高度分析图
轨道倾角分析图
轨道综合分析图
查看轨道综合分析图